Location: Calimesa Mobile Home Ranch
(33.9736°N, 117.0370°W)
Time: 01:02:51
(UTC+00:00)

Envisat - Visible Passes

Search period start: 18 July 2024 00:00
Search period end: 28 July 2024 00:00
Orbit: 762 x 764 km, 98.3° (Epoch: 17 July)

Date Brightness Start Highest point End Pass type
(mag) Time Alt. Az. Time Alt. Az. Time Alt. Az.
18 Jul 5.4 09:46:23 10° ENE 09:49:05 14° E 09:51:14 11° ESE visible
18 Jul 3.2 11:23:23 10° N 11:28:17 52° WNW 11:31:23 22° SW visible
19 Jul 3.3 10:45:56 10° NNE 10:50:58 64° E 10:53:30 29° S visible
20 Jul 4.7 10:09:15 10° NE 10:13:27 26° E 10:15:37 19° SE visible
20 Jul 4.0 11:47:58 10° N 11:52:20 30° WNW 11:55:46 14° WSW visible
21 Jul 2.9 11:10:05 10° N 11:15:08 72° WNW 11:17:53 27° SSW visible
22 Jul 3.8 10:32:52 10° NNE 10:37:45 46° E 10:39:59 28° SSE visible
22 Jul 4.7 12:13:04 10° NNW 12:16:17 17° WNW 12:19:31 10° WSW visible
23 Jul 5.1 09:56:36 10° NE 10:00:10 19° E 10:02:06 16° ESE visible
23 Jul 3.6 11:34:31 10° N 11:39:13 40° WNW 11:42:15 20° SW visible
24 Jul 2.9 10:56:52 10° NNE 11:01:58 84° ESE 11:04:21 32° S visible
25 Jul 4.3 10:19:55 10° NNE 10:24:31 34° E 10:26:28 25° SE visible
25 Jul 4.3 11:59:18 10° NNW 12:03:14 23° WNW 12:06:37 12° WSW visible
26 Jul 5.4 09:44:19 10° ENE 09:46:52 14° E 09:48:34 12° ESE visible
26 Jul 3.2 11:21:09 10° N 11:26:05 54° WNW 11:28:43 26° SW visible
27 Jul 3.3 10:43:44 10° NNE 10:48:45 62° E 10:50:49 34° SSE visible
27 Jul 4.9 12:24:48 10° NW 12:27:08 13° WNW 12:29:28 10° W visible
